contact:dominique.lefevre@mio.osupytheas.fr, maurice.libes@osupytheas.fr, didier.mallarino@osupytheas.fr
Project:EMSO http://www.emso-fr.org/EMSO-France
Depth: 2436.0 m
Title:EMSO Ligure Ouest : Data MII capteur MICROCAT
DateTime_Computer,Latitude,Longitude,Temperature,Conductivity,Pressure,DateTime_Instrument
DateTime_Computer,Latitude,Longitude,degC,S m-1,dbar,DateTime_Instrument
2023-04-02T00:01:33Z,42.805,6.029,13.3030,4.60089,2470.553,2023-4-02T02:04:22Z
2023-04-02T00:04:36Z,42.805,6.029,13.3032,4.60084,2470.567,2023-4-02T02:07:25Z
2023-04-02T00:07:39Z,42.805,6.029,13.3034,4.60084,2470.577,2023-4-02T02:10:28Z
2023-04-02T00:10:42Z,42.805,6.029,13.3030,4.60084,2470.553,2023-4-02T02:13:31Z
2023-04-02T00:13:45Z,42.805,6.029,13.3027,4.60085,2470.553,2023-4-02T02:16:34Z
2023-04-02T00:16:48Z,42.805,6.029,13.3034,4.60086,2470.553,2023-4-02T02:19:38Z
2023-04-02T00:19:51Z,42.805,6.029,13.3035,4.60092,2470.567,2023-4-02T02:22:41Z
2023-04-02T00:22:54Z,42.805,6.029,13.3026,4.60087,2470.591,2023-4-02T02:25:44Z
2023-04-02T00:25:57Z,42.805,6.029,13.3032,4.60090,2470.567,2023-4-02T02:28:47Z
2023-04-02T00:29:01Z,42.805,6.029,13.3029,4.60087,2470.591,2023-4-02T02:31:50Z
2023-04-02T00:32:04Z,42.805,6.029,13.3031,4.60082,2470.591,2023-4-02T02:34:53Z
2023-04-02T00:35:07Z,42.805,6.029,13.3026,4.60087,2470.553,2023-4-02T02:37:56Z
2023-04-02T00:38:10Z,42.805,6.029,13.3024,4.60089,2470.577,2023-4-02T02:40:59Z
2023-04-02T00:41:13Z,42.805,6.029,13.3029,4.60089,2470.6,2023-4-02T02:44:02Z
2023-04-02T00:44:16Z,42.805,6.029,13.3028,4.60097,2470.577,2023-4-02T02:47:05Z
2023-04-02T00:47:19Z,42.805,6.029,13.3026,4.60091,2470.591,2023-4-02T02:50:08Z
2023-04-02T00:50:22Z,42.805,6.029,13.3031,4.60087,2470.591,2023-4-02T02:53:11Z
2023-04-02T00:53:25Z,42.805,6.029,13.3025,4.60087,2470.567,2023-4-02T02:56:15Z
2023-04-02T00:56:28Z,42.805,6.029,13.3029,4.60097,2470.577,2023-4-02T02:59:18Z
2023-04-02T00:59:31Z,42.805,6.029,13.3028,4.60088,2470.591,2023-4-02T03:02:21Z
2023-04-02T01:02:34Z,42.805,6.029,13.3023,4.60095,2470.577,2023-4-02T03:05:24Z
2023-04-02T01:05:37Z,42.805,6.029,13.3029,4.60086,2470.577,2023-4-02T03:08:27Z
2023-04-02T01:08:41Z,42.805,6.029,13.3029,4.60087,2470.577,2023-4-02T03:11:30Z
2023-04-02T01:11:44Z,42.805,6.029,13.3029,4.60094,2470.577,2023-4-02T03:14:33Z
2023-04-02T01:14:47Z,42.805,6.029,13.3027,4.60084,2470.577,2023-4-02T03:17:36Z
2023-04-02T01:17:50Z,42.805,6.029,13.3027,4.60087,2470.577,2023-4-02T03:20:39Z
2023-04-02T01:20:53Z,42.805,6.029,13.3028,4.60087,2470.614,2023-4-02T03:23:42Z
2023-04-02T01:23:56Z,42.805,6.029,13.3027,4.60088,2470.591,2023-4-02T03:26:45Z
2023-04-02T01:26:59Z,42.805,6.029,13.3034,4.60088,2470.6,2023-4-02T03:29:48Z
2023-04-02T01:30:02Z,42.805,6.029,13.3027,4.60091,2470.6,2023-4-02T03:32:51Z
2023-04-02T01:33:05Z,42.805,6.029,13.3031,4.60084,2470.6,2023-4-02T03:35:55Z
2023-04-02T01:36:08Z,42.805,6.029,13.3029,4.60087,2470.553,2023-4-02T03:38:58Z
2023-04-02T01:39:11Z,42.805,6.029,13.3026,4.60093,2470.577,2023-4-02T03:42:01Z
2023-04-02T01:42:14Z,42.805,6.029,13.3028,4.60086,2470.591,2023-4-02T03:45:04Z
2023-04-02T01:45:18Z,42.805,6.029,13.3037,4.60085,2470.624,2023-4-02T03:48:07Z
2023-04-02T01:48:21Z,42.805,6.029,13.3031,4.60089,2470.614,2023-4-02T03:51:10Z
2023-04-02T01:51:24Z,42.805,6.029,13.3031,4.60085,2470.614,2023-4-02T03:54:13Z
2023-04-02T01:54:27Z,42.805,6.029,13.3024,4.60094,2470.6,2023-4-02T03:57:16Z
2023-04-02T01:57:30Z,42.805,6.029,13.3028,4.60090,2470.614,2023-4-02T04:00:19Z
2023-04-02T02:00:33Z,42.805,6.029,13.3024,4.60086,2470.637,2023-4-02T04:03:22Z
2023-04-02T02:03:36Z,42.805,6.029,13.3036,4.60087,2470.624,2023-4-02T04:06:25Z
2023-04-02T02:06:39Z,42.805,6.029,13.3032,4.60089,2470.614,2023-4-02T04:09:28Z
2023-04-02T02:09:42Z,42.805,6.029,13.3034,4.60089,2470.614,2023-4-02T04:12:31Z
2023-04-02T02:12:45Z,42.805,6.029,13.3029,4.60085,2470.624,2023-4-02T04:15:35Z
2023-04-02T02:15:48Z,42.805,6.029,13.3029,4.60084,2470.6,2023-4-02T04:18:38Z
2023-04-02T02:18:51Z,42.805,6.029,13.3034,4.60087,2470.637,2023-4-02T04:21:41Z
2023-04-02T02:21:54Z,42.805,6.029,13.3030,4.60094,2470.646,2023-4-02T04:24:44Z
2023-04-02T02:24:57Z,42.805,6.029,13.3027,4.60090,2470.646,2023-4-02T04:27:47Z
2023-04-02T02:28:01Z,42.805,6.029,13.3035,4.60094,2470.624,2023-4-02T04:30:50Z
2023-04-02T02:31:04Z,42.805,6.029,13.3029,4.60087,2470.624,2023-4-02T04:33:53Z
2023-04-02T02:34:07Z,42.805,6.029,13.3029,4.60087,2470.646,2023-4-02T04:36:56Z
2023-04-02T02:37:10Z,42.805,6.029,13.3031,4.60088,2470.624,2023-4-02T04:39:59Z
2023-04-02T02:40:13Z,42.805,6.029,13.3031,4.60093,2470.661,2023-4-02T04:43:02Z
2023-04-02T02:43:16Z,42.805,6.029,13.3034,4.60088,2470.646,2023-4-02T04:46:05Z
2023-04-02T02:46:19Z,42.805,6.029,13.3031,4.60091,2470.624,2023-4-02T04:49:08Z
2023-04-02T02:49:22Z,42.805,6.029,13.3032,4.60085,2470.637,2023-4-02T04:52:12Z
2023-04-02T02:52:25Z,42.805,6.029,13.3027,4.60089,2470.624,2023-4-02T04:55:15Z
2023-04-02T02:55:28Z,42.805,6.029,13.3036,4.60091,2470.67,2023-4-02T04:58:18Z
2023-04-02T02:58:31Z,42.805,6.029,13.3028,4.60092,2470.646,2023-4-02T05:01:21Z
2023-04-02T03:01:34Z,42.805,6.029,13.3032,4.60092,2470.646,2023-4-02T05:04:24Z
2023-04-02T03:04:37Z,42.805,6.029,13.3031,4.60088,2470.646,2023-4-02T05:07:27Z
2023-04-02T03:07:41Z,42.805,6.029,13.3028,4.60085,2470.646,2023-4-02T05:10:30Z
2023-04-02T03:10:44Z,42.805,6.029,13.3029,4.60084,2470.684,2023-4-02T05:13:33Z
2023-04-02T03:13:47Z,42.805,6.029,13.3023,4.60092,2470.646,2023-4-02T05:16:36Z
2023-04-02T03:16:50Z,42.805,6.029,13.3028,4.60090,2470.684,2023-4-02T05:19:39Z
2023-04-02T03:19:53Z,42.805,6.029,13.3033,4.60085,2470.684,2023-4-02T05:22:42Z
2023-04-02T03:22:56Z,42.805,6.029,13.3026,4.60084,2470.646,2023-4-02T05:25:45Z
2023-04-02T03:25:59Z,42.805,6.029,13.3027,4.60091,2470.646,2023-4-02T05:28:48Z
2023-04-02T03:29:02Z,42.805,6.029,13.3030,4.60083,2470.684,2023-4-02T05:31:52Z
2023-04-02T03:32:05Z,42.805,6.029,13.3026,4.60094,2470.684,2023-4-02T05:34:55Z
2023-04-02T03:35:08Z,42.805,6.029,13.3026,4.60092,2470.67,2023-4-02T05:37:58Z
2023-04-02T03:38:11Z,42.805,6.029,13.3034,4.60081,2470.67,2023-4-02T05:41:01Z
2023-04-02T03:41:14Z,42.805,6.029,13.3029,4.60087,2470.67,2023-4-02T05:44:04Z
2023-04-02T03:44:17Z,42.805,6.029,13.3036,4.60087,2470.67,2023-4-02T05:47:07Z
2023-04-02T03:47:21Z,42.805,6.029,13.3031,4.60085,2470.67,2023-4-02T05:50:10Z
2023-04-02T03:50:24Z,42.805,6.029,13.3034,4.60082,2470.67,2023-4-02T05:53:13Z
2023-04-02T03:53:27Z,42.805,6.029,13.3028,4.60084,2470.693,2023-4-02T05:56:16Z
2023-04-02T03:56:30Z,42.805,6.029,13.3026,4.60087,2470.707,2023-4-02T05:59:19Z
2023-04-02T03:59:33Z,42.805,6.029,13.3024,4.60085,2470.684,2023-4-02T06:02:22Z
2023-04-02T04:02:36Z,42.805,6.029,13.3021,4.60092,2470.693,2023-4-02T06:05:25Z
2023-04-02T04:05:39Z,42.805,6.029,13.3029,4.60089,2470.717,2023-4-02T06:08:28Z
2023-04-02T04:08:42Z,42.805,6.029,13.3025,4.60095,2470.707,2023-4-02T06:11:32Z
2023-04-02T04:11:45Z,42.805,6.029,13.3026,4.60091,2470.693,2023-4-02T06:14:35Z
2023-04-02T04:14:48Z,42.805,6.029,13.3029,4.60086,2470.73,2023-4-02T06:17:38Z
2023-04-02T04:17:51Z,42.805,6.029,13.3024,4.60093,2470.693,2023-4-02T06:20:41Z
2023-04-02T04:20:54Z,42.805,6.029,13.3026,4.60085,2470.693,2023-4-02T06:23:44Z
2023-04-02T04:23:57Z,42.805,6.029,13.3029,4.60084,2470.707,2023-4-02T06:26:47Z
2023-04-02T04:27:01Z,42.805,6.029,13.3026,4.60103,2470.693,2023-4-02T06:29:50Z
2023-04-02T04:30:08Z,42.805,6.029,13.3036,4.60091,2470.717,2023-4-02T06:32:53Z
2023-04-02T04:33:07Z,42.805,6.029,13.3026,4.60095,2470.707,2023-4-02T06:35:56Z
2023-04-02T04:36:10Z,42.805,6.029,13.3026,4.60091,2470.717,2023-4-02T06:38:59Z
2023-04-02T04:39:13Z,42.805,6.029,13.3035,4.60097,2470.684,2023-4-02T06:42:02Z
2023-04-02T04:42:16Z,42.805,6.029,13.3042,4.60102,2470.684,2023-4-02T06:45:05Z
2023-04-02T04:45:19Z,42.805,6.029,13.3032,4.60090,2470.73,2023-4-02T06:48:08Z
2023-04-02T04:48:22Z,42.805,6.029,13.3027,4.60092,2470.707,2023-4-02T06:51:11Z
2023-04-02T04:51:25Z,42.805,6.029,13.3034,4.60087,2470.73,2023-4-02T06:54:15Z
2023-04-02T04:54:28Z,42.805,6.029,13.3032,4.60089,2470.693,2023-4-02T06:57:18Z
2023-04-02T04:57:31Z,42.805,6.029,13.3025,4.60104,2470.717,2023-4-02T07:00:21Z
2023-04-02T05:00:34Z,42.805,6.029,13.3022,4.60096,2470.693,2023-4-02T07:03:24Z
2023-04-02T05:03:37Z,42.805,6.029,13.3031,4.60095,2470.693,2023-4-02T07:06:27Z
2023-04-02T05:06:40Z,42.805,6.029,13.3020,4.60099,2470.74,2023-4-02T07:09:30Z
2023-04-02T05:09:44Z,42.805,6.029,13.3026,4.60085,2470.717,2023-4-02T07:12:33Z
2023-04-02T05:12:47Z,42.805,6.029,13.3031,4.60090,2470.717,2023-4-02T07:15:36Z
2023-04-02T05:15:50Z,42.805,6.029,13.3027,4.60097,2470.717,2023-4-02T07:18:39Z
2023-04-02T05:18:53Z,42.805,6.029,13.3036,4.60100,2470.73,2023-4-02T07:21:42Z
2023-04-02T05:21:56Z,42.805,6.029,13.3034,4.60096,2470.717,2023-4-02T07:24:45Z
2023-04-02T05:24:59Z,42.805,6.029,13.3028,4.60083,2470.693,2023-4-02T07:27:48Z
2023-04-02T05:28:02Z,42.805,6.029,13.3029,4.60099,2470.74,2023-4-02T07:30:51Z
2023-04-02T05:31:05Z,42.805,6.029,13.3033,4.60087,2470.74,2023-4-02T07:33:55Z
2023-04-02T05:34:08Z,42.805,6.029,13.3029,4.60097,2470.717,2023-4-02T07:36:58Z
2023-04-02T05:37:11Z,42.805,6.029,13.3032,4.60096,2470.73,2023-4-02T07:40:01Z
2023-04-02T05:40:14Z,42.805,6.029,13.3029,4.60088,2470.693,2023-4-02T07:43:04Z
2023-04-02T05:43:17Z,42.805,6.029,13.3036,4.60101,2470.73,2023-4-02T07:46:07Z
2023-04-02T05:46:20Z,42.805,6.029,13.3034,4.60082,2470.754,2023-4-02T07:49:10Z
2023-04-02T05:49:24Z,42.805,6.029,13.3030,4.60101,2470.717,2023-4-02T07:52:13Z
2023-04-02T05:52:27Z,42.805,6.029,13.3025,4.60091,2470.74,2023-4-02T07:55:16Z
2023-04-02T05:55:30Z,42.805,6.029,13.3029,4.60104,2470.754,2023-4-02T07:58:19Z
2023-04-02T05:58:33Z,42.805,6.029,13.3023,4.60087,2470.717,2023-4-02T08:01:22Z
2023-04-02T06:01:36Z,42.805,6.029,13.3035,4.60091,2470.717,2023-4-02T08:04:25Z
2023-04-02T06:04:39Z,42.805,6.029,13.3029,4.60087,2470.73,2023-4-02T08:07:28Z
2023-04-02T06:07:42Z,42.805,6.029,13.3041,4.60099,2470.717,2023-4-02T08:10:31Z
2023-04-02T06:10:45Z,42.805,6.029,13.3025,4.60097,2470.74,2023-4-02T08:13:35Z
2023-04-02T06:13:48Z,42.805,6.029,13.3023,4.60100,2470.754,2023-4-02T08:16:38Z
2023-04-02T06:16:51Z,42.805,6.029,13.3029,4.60107,2470.717,2023-4-02T08:19:41Z
2023-04-02T06:19:54Z,42.805,6.029,13.3030,4.60087,2470.717,2023-4-02T08:22:44Z
2023-04-02T06:22:57Z,42.805,6.029,13.3032,4.60083,2470.717,2023-4-02T08:25:47Z
2023-04-02T06:26:00Z,42.805,6.029,13.3021,4.60089,2470.717,2023-4-02T08:28:50Z
2023-04-02T06:29:04Z,42.805,6.029,13.3029,4.60106,2470.74,2023-4-02T08:31:53Z
2023-04-02T06:32:07Z,42.805,6.029,13.3031,4.60099,2470.717,2023-4-02T08:34:56Z
2023-04-02T06:35:10Z,42.805,6.029,13.3036,4.60084,2470.754,2023-4-02T08:37:59Z
2023-04-02T06:38:13Z,42.805,6.029,13.3026,4.60086,2470.717,2023-4-02T08:41:02Z
2023-04-02T06:41:16Z,42.805,6.029,13.3025,4.60092,2470.717,2023-4-02T08:44:05Z
2023-04-02T06:44:19Z,42.805,6.029,13.3027,4.60084,2470.74,2023-4-02T08:47:08Z
2023-04-02T06:47:22Z,42.805,6.029,13.3033,4.60100,2470.717,2023-4-02T08:50:11Z
2023-04-02T06:50:25Z,42.805,6.029,13.3030,4.60093,2470.73,2023-4-02T08:53:15Z
2023-04-02T06:53:28Z,42.805,6.029,13.3027,4.60096,2470.693,2023-4-02T08:56:18Z
2023-04-02T06:56:31Z,42.805,6.029,13.3022,4.60092,2470.693,2023-4-02T08:59:21Z
2023-04-02T06:59:34Z,42.805,6.029,13.3033,4.60087,2470.693,2023-4-02T09:02:24Z
2023-04-02T07:02:37Z,42.805,6.029,13.3029,4.60091,2470.74,2023-4-02T09:05:27Z
2023-04-02T07:05:40Z,42.805,6.029,13.3023,4.60105,2470.74,2023-4-02T09:08:30Z
2023-04-02T07:08:44Z,42.805,6.029,13.3028,4.60093,2470.693,2023-4-02T09:11:33Z
2023-04-02T07:11:47Z,42.805,6.029,13.3029,4.60086,2470.703,2023-4-02T09:14:36Z
2023-04-02T07:14:50Z,42.805,6.029,13.3026,4.60086,2470.717,2023-4-02T09:17:39Z
2023-04-02T07:17:53Z,42.805,6.029,13.3030,4.60091,2470.717,2023-4-02T09:20:42Z
2023-04-02T07:20:56Z,42.805,6.029,13.3027,4.60085,2470.707,2023-4-02T09:23:45Z
2023-04-02T07:23:59Z,42.805,6.029,13.3026,4.60087,2470.717,2023-4-02T09:26:48Z
2023-04-02T07:27:02Z,42.805,6.029,13.3034,4.60087,2470.707,2023-4-02T09:29:51Z
2023-04-02T07:30:05Z,42.805,6.029,13.3030,4.60084,2470.693,2023-4-02T09:32:55Z
2023-04-02T07:33:08Z,42.805,6.029,13.3029,4.60092,2470.684,2023-4-02T09:35:58Z
2023-04-02T07:36:11Z,42.805,6.029,13.3026,4.60085,2470.74,2023-4-02T09:39:01Z
2023-04-02T07:39:14Z,42.805,6.029,13.3024,4.60088,2470.717,2023-4-02T09:42:04Z
2023-04-02T07:42:17Z,42.805,6.029,13.3028,4.60094,2470.73,2023-4-02T09:45:07Z
2023-04-02T07:45:20Z,42.805,6.029,13.3025,4.60084,2470.693,2023-4-02T09:48:10Z
2023-04-02T07:48:24Z,42.805,6.029,13.3029,4.60099,2470.73,2023-4-02T09:51:13Z
2023-04-02T07:51:27Z,42.805,6.029,13.3032,4.60091,2470.707,2023-4-02T09:54:16Z
2023-04-02T07:54:30Z,42.805,6.029,13.3026,4.60112,2470.707,2023-4-02T09:57:19Z
2023-04-02T07:57:33Z,42.805,6.029,13.3024,4.60096,2470.684,2023-4-02T10:00:22Z
2023-04-02T08:00:36Z,42.805,6.029,13.3029,4.60094,2470.707,2023-4-02T10:03:25Z
2023-04-02T08:03:39Z,42.805,6.029,13.3039,4.60084,2470.67,2023-4-02T10:06:28Z
2023-04-02T08:06:42Z,42.805,6.029,13.3034,4.60089,2470.707,2023-4-02T10:09:32Z
2023-04-02T08:09:45Z,42.805,6.029,13.3028,4.60096,2470.67,2023-4-02T10:12:35Z
2023-04-02T08:12:48Z,42.805,6.029,13.3029,4.60090,2470.67,2023-4-02T10:15:38Z
2023-04-02T08:15:51Z,42.805,6.029,13.3026,4.60092,2470.693,2023-4-02T10:18:41Z
2023-04-02T08:18:54Z,42.805,6.029,13.3028,4.60091,2470.661,2023-4-02T10:21:44Z
2023-04-02T08:21:57Z,42.805,6.029,13.3028,4.60082,2470.693,2023-4-02T10:24:47Z
2023-04-02T08:25:01Z,42.805,6.029,13.3025,4.60090,2470.693,2023-4-02T10:27:50Z
2023-04-02T08:28:04Z,42.805,6.029,13.3034,4.60085,2470.684,2023-4-02T10:30:53Z
2023-04-02T08:31:07Z,42.805,6.029,13.3026,4.60097,2470.67,2023-4-02T10:33:56Z
2023-04-02T08:34:10Z,42.805,6.029,13.3022,4.60087,2470.67,2023-4-02T10:36:59Z
2023-04-02T08:37:13Z,42.805,6.029,13.3029,4.60087,2470.707,2023-4-02T10:40:02Z
2023-04-02T08:40:16Z,42.805,6.029,13.3032,4.60102,2470.684,2023-4-02T10:43:05Z
2023-04-02T08:43:19Z,42.805,6.029,13.3025,4.60087,2470.646,2023-4-02T10:46:09Z
2023-04-02T08:46:22Z,42.805,6.029,13.3026,4.60089,2470.661,2023-4-02T10:49:12Z
2023-04-02T08:49:25Z,42.805,6.029,13.3026,4.60090,2470.693,2023-4-02T10:52:15Z
2023-04-02T08:52:28Z,42.805,6.029,13.3024,4.60093,2470.67,2023-4-02T10:55:18Z
2023-04-02T08:55:31Z,42.805,6.029,13.3025,4.60087,2470.67,2023-4-02T10:58:21Z
2023-04-02T08:58:34Z,42.805,6.029,13.3031,4.60081,2470.637,2023-4-02T11:01:24Z
2023-04-02T09:01:38Z,42.805,6.029,13.3027,4.60090,2470.67,2023-4-02T11:04:27Z
2023-04-02T09:04:41Z,42.805,6.029,13.3027,4.60098,2470.646,2023-4-02T11:07:30Z
2023-04-02T09:07:44Z,42.805,6.029,13.3033,4.60089,2470.624,2023-4-02T11:10:33Z
2023-04-02T09:10:47Z,42.805,6.029,13.3028,4.60087,2470.624,2023-4-02T11:13:36Z
2023-04-02T09:13:50Z,42.805,6.029,13.3023,4.60087,2470.646,2023-4-02T11:16:39Z
2023-04-02T09:16:53Z,42.805,6.029,13.3021,4.60088,2470.646,2023-4-02T11:19:42Z
2023-04-02T09:19:56Z,42.805,6.029,13.3031,4.60081,2470.684,2023-4-02T11:22:46Z
2023-04-02T09:22:59Z,42.805,6.029,13.3025,4.60086,2470.67,2023-4-02T11:25:49Z
2023-04-02T09:26:02Z,42.805,6.029,13.3026,4.60093,2470.624,2023-4-02T11:28:52Z
2023-04-02T09:29:05Z,42.805,6.029,13.3030,4.60087,2470.614,2023-4-02T11:31:55Z
2023-04-02T09:32:08Z,42.805,6.029,13.3022,4.60088,2470.624,2023-4-02T11:34:58Z
2023-04-02T09:35:11Z,42.805,6.029,13.3024,4.60089,2470.624,2023-4-02T11:38:01Z
2023-04-02T09:38:15Z,42.805,6.029,13.3024,4.60092,2470.637,2023-4-02T11:41:04Z
2023-04-02T09:41:18Z,42.805,6.029,13.3026,4.60081,2470.661,2023-4-02T11:44:07Z
2023-04-02T09:44:21Z,42.805,6.029,13.3031,4.60085,2470.624,2023-4-02T11:47:10Z
2023-04-02T09:47:24Z,42.805,6.029,13.3029,4.60089,2470.661,2023-4-02T11:50:13Z
2023-04-02T09:50:27Z,42.805,6.029,13.3027,4.60089,2470.624,2023-4-02T11:53:16Z
2023-04-02T09:53:30Z,42.805,6.029,13.3029,4.60084,2470.646,2023-4-02T11:56:19Z
2023-04-02T09:56:33Z,42.805,6.029,13.3026,4.60089,2470.614,2023-4-02T11:59:23Z
2023-04-02T09:59:36Z,42.805,6.029,13.3024,4.60084,2470.6,2023-4-02T12:02:26Z
2023-04-02T10:02:39Z,42.805,6.029,13.3026,4.60093,2470.614,2023-4-02T12:05:29Z
2023-04-02T10:05:42Z,42.805,6.029,13.3024,4.60090,2470.624,2023-4-02T12:08:32Z
2023-04-02T10:08:45Z,42.805,6.029,13.3029,4.60087,2470.6,2023-4-02T12:11:35Z
2023-04-02T10:11:48Z,42.805,6.029,13.3024,4.60082,2470.61,2023-4-02T12:14:38Z
2023-04-02T10:14:52Z,42.805,6.029,13.3024,4.60087,2470.624,2023-4-02T12:17:41Z
2023-04-02T10:17:55Z,42.805,6.029,13.3024,4.60087,2470.614,2023-4-02T12:20:44Z
2023-04-02T10:20:58Z,42.805,6.029,13.3024,4.60082,2470.661,2023-4-02T12:23:47Z
2023-04-02T10:24:01Z,42.805,6.029,13.3031,4.60087,2470.646,2023-4-02T12:26:50Z
2023-04-02T10:27:04Z,42.805,6.029,13.3025,4.60085,2470.637,2023-4-02T12:29:53Z
2023-04-02T10:30:10Z,42.805,6.029,13.3028,4.60091,2470.6,2023-4-02T12:33:00Z
2023-04-02T10:33:13Z,42.805,6.029,13.3031,4.60082,2470.614,2023-4-02T12:36:03Z
2023-04-02T10:36:16Z,42.805,6.029,13.3029,4.60090,2470.637,2023-4-02T12:39:06Z
2023-04-02T10:39:19Z,42.805,6.029,13.3031,4.60084,2470.577,2023-4-02T12:42:09Z
2023-04-02T10:42:22Z,42.805,6.029,13.3024,4.60084,2470.6,2023-4-02T12:45:12Z
2023-04-02T10:45:26Z,42.805,6.029,13.3023,4.60083,2470.6,2023-4-02T12:48:15Z
2023-04-02T10:48:29Z,42.805,6.029,13.3024,4.60090,2470.614,2023-4-02T12:51:18Z
2023-04-02T10:51:32Z,42.805,6.029,13.3023,4.60088,2470.591,2023-4-02T12:54:21Z
2023-04-02T10:54:35Z,42.805,6.029,13.3022,4.60084,2470.614,2023-4-02T12:57:24Z
2023-04-02T10:57:38Z,42.805,6.029,13.3029,4.60083,2470.6,2023-4-02T13:00:27Z
2023-04-02T11:00:41Z,42.805,6.029,13.3027,4.60090,2470.6,2023-4-02T13:03:30Z
2023-04-02T11:03:44Z,42.805,6.029,13.3032,4.60084,2470.624,2023-4-02T13:06:34Z
2023-04-02T11:06:47Z,42.805,6.029,13.3024,4.60090,2470.6,2023-4-02T13:09:37Z
2023-04-02T11:09:50Z,42.805,6.029,13.3024,4.60084,2470.591,2023-4-02T13:12:40Z
2023-04-02T11:12:53Z,42.805,6.029,13.3025,4.60087,2470.6,2023-4-02T13:15:43Z
2023-04-02T11:15:56Z,42.805,6.029,13.3027,4.60093,2470.577,2023-4-02T13:18:46Z
2023-04-02T11:18:59Z,42.805,6.029,13.3029,4.60088,2470.614,2023-4-02T13:21:49Z
2023-04-02T11:22:02Z,42.805,6.029,13.3025,4.60081,2470.6,2023-4-02T13:24:52Z
2023-04-02T11:25:06Z,42.805,6.029,13.3026,4.60084,2470.6,2023-4-02T13:27:55Z
2023-04-02T11:28:09Z,42.805,6.029,13.3026,4.60086,2470.553,2023-4-02T13:30:58Z
2023-04-02T11:31:12Z,42.805,6.029,13.3026,4.60088,2470.567,2023-4-02T13:34:01Z
2023-04-02T11:34:15Z,42.805,6.029,13.3025,4.60088,2470.577,2023-4-02T13:37:04Z
2023-04-02T11:37:18Z,42.805,6.029,13.3031,4.60092,2470.553,2023-4-02T13:40:07Z
2023-04-02T11:40:21Z,42.805,6.029,13.3024,4.60095,2470.591,2023-4-02T13:43:11Z
2023-04-02T11:43:24Z,42.805,6.029,13.3027,4.60084,2470.577,2023-4-02T13:46:14Z
2023-04-02T11:46:27Z,42.805,6.029,13.3027,4.60087,2470.53,2023-4-02T13:49:17Z
2023-04-02T11:49:30Z,42.805,6.029,13.3031,4.60090,2470.553,2023-4-02T13:52:20Z
2023-04-02T11:52:33Z,42.805,6.029,13.3034,4.60084,2470.6,2023-4-02T13:55:23Z
2023-04-02T11:55:36Z,42.805,6.029,13.3027,4.60098,2470.6,2023-4-02T13:58:26Z
2023-04-02T11:58:39Z,42.805,6.029,13.3024,4.60088,2470.553,2023-4-02T14:01:29Z
2023-04-02T12:01:42Z,42.805,6.029,13.3025,4.60085,2470.553,2023-4-02T14:04:32Z
2023-04-02T12:04:46Z,42.805,6.029,13.3027,4.60087,2470.577,2023-4-02T14:07:35Z
2023-04-02T12:07:49Z,42.805,6.029,13.3026,4.60084,2470.577,2023-4-02T14:10:38Z
2023-04-02T12:10:52Z,42.805,6.029,13.3026,4.60085,2470.553,2023-4-02T14:13:41Z
2023-04-02T12:13:55Z,42.805,6.029,13.3031,4.60087,2470.563,2023-4-02T14:16:44Z
2023-04-02T12:16:58Z,42.805,6.029,13.3031,4.60086,2470.553,2023-4-02T14:19:48Z
2023-04-02T12:20:01Z,42.805,6.029,13.3028,4.60088,2470.553,2023-4-02T14:22:51Z
2023-04-02T12:23:04Z,42.805,6.029,13.3026,4.60087,2470.577,2023-4-02T14:25:54Z
2023-04-02T12:26:07Z,42.805,6.029,13.3030,4.60085,2470.567,2023-4-02T14:28:57Z
2023-04-02T12:29:10Z,42.805,6.029,13.3032,4.60088,2470.577,2023-4-02T14:32:00Z
2023-04-02T12:32:13Z,42.805,6.029,13.3026,4.60084,2470.544,2023-4-02T14:35:03Z
2023-04-02T12:35:16Z,42.805,6.029,13.3029,4.60087,2470.577,2023-4-02T14:38:06Z
2023-04-02T12:38:19Z,42.805,6.029,13.3027,4.60087,2470.577,2023-4-02T14:41:09Z
2023-04-02T12:41:23Z,42.805,6.029,13.3027,4.60099,2470.614,2023-4-02T14:44:12Z
2023-04-02T12:44:26Z,42.805,6.029,13.3027,4.60087,2470.539,2023-4-02T14:47:15Z
2023-04-02T12:47:29Z,42.805,6.029,13.3030,4.60088,2470.53,2023-4-02T14:50:18Z
2023-04-02T12:50:32Z,42.805,6.029,13.3031,4.60092,2470.553,2023-4-02T14:53:21Z
2023-04-02T12:53:35Z,42.805,6.029,13.3029,4.60087,2470.567,2023-4-02T14:56:24Z
2023-04-02T12:56:38Z,42.805,6.029,13.3031,4.60087,2470.577,2023-4-02T14:59:28Z
2023-04-02T12:59:41Z,42.805,6.029,13.3034,4.60087,2470.567,2023-4-02T15:02:31Z
2023-04-02T13:02:44Z,42.805,6.029,13.3031,4.60087,2470.577,2023-4-02T15:05:34Z
2023-04-02T13:05:47Z,42.805,6.029,13.3031,4.60089,2470.591,2023-4-02T15:08:37Z
2023-04-02T13:08:50Z,42.805,6.029,13.3030,4.60086,2470.567,2023-4-02T15:11:40Z
2023-04-02T13:11:53Z,42.805,6.029,13.3026,4.60084,2470.563,2023-4-02T15:14:43Z
2023-04-02T13:14:56Z,42.805,6.029,13.3033,4.60088,2470.567,2023-4-02T15:17:46Z
2023-04-02T13:17:59Z,42.805,6.029,13.3026,4.60087,2470.553,2023-4-02T15:20:49Z
2023-04-02T13:21:03Z,42.805,6.029,13.3028,4.60087,2470.567,2023-4-02T15:23:52Z
2023-04-02T13:24:06Z,42.805,6.029,13.3030,4.60084,2470.553,2023-4-02T15:26:55Z
2023-04-02T13:27:09Z,42.805,6.029,13.3033,4.60088,2470.553,2023-4-02T15:29:58Z
2023-04-02T13:30:12Z,42.805,6.029,13.3031,4.60097,2470.53,2023-4-02T15:33:01Z
2023-04-02T13:33:15Z,42.805,6.029,13.3039,4.60093,2470.553,2023-4-02T15:36:05Z
2023-04-02T13:36:18Z,42.805,6.029,13.3026,4.60087,2470.567,2023-4-02T15:39:08Z
2023-04-02T13:39:21Z,42.805,6.029,13.3031,4.60087,2470.553,2023-4-02T15:42:11Z
2023-04-02T13:42:24Z,42.805,6.029,13.3037,4.60086,2470.553,2023-4-02T15:45:14Z
2023-04-02T13:45:27Z,42.805,6.029,13.3030,4.60093,2470.553,2023-4-02T15:48:17Z
2023-04-02T13:48:30Z,42.805,6.029,13.3030,4.60090,2470.553,2023-4-02T15:51:20Z
2023-04-02T13:51:33Z,42.805,6.029,13.3027,4.60086,2470.614,2023-4-02T15:54:23Z
2023-04-02T13:54:36Z,42.805,6.029,13.3031,4.60087,2470.6,2023-4-02T15:57:26Z
2023-04-02T13:57:40Z,42.805,6.029,13.3030,4.60087,2470.6,2023-4-02T16:00:29Z
2023-04-02T14:00:43Z,42.805,6.029,13.3031,4.60094,2470.553,2023-4-02T16:03:32Z
2023-04-02T14:03:46Z,42.805,6.029,13.3028,4.60089,2470.577,2023-4-02T16:06:35Z
2023-04-02T14:06:49Z,42.805,6.029,13.3027,4.60088,2470.53,2023-4-02T16:09:38Z
2023-04-02T14:09:52Z,42.805,6.029,13.3031,4.60092,2470.577,2023-4-02T16:12:41Z
2023-04-02T14:12:55Z,42.805,6.029,13.3034,4.60088,2470.614,2023-4-02T16:15:45Z
2023-04-02T14:15:58Z,42.805,6.029,13.3030,4.60089,2470.591,2023-4-02T16:18:48Z
2023-04-02T14:19:01Z,42.805,6.029,13.3031,4.60090,2470.6,2023-4-02T16:21:51Z
2023-04-02T14:22:04Z,42.805,6.029,13.3029,4.60090,2470.6,2023-4-02T16:24:54Z
2023-04-02T14:25:07Z,42.805,6.029,13.3034,4.60093,2470.614,2023-4-02T16:27:57Z
2023-04-02T14:28:10Z,42.805,6.029,13.3033,4.60096,2470.6,2023-4-02T16:31:00Z
2023-04-02T14:31:13Z,42.805,6.029,13.3034,4.60091,2470.591,2023-4-02T16:34:03Z
2023-04-02T14:34:16Z,42.805,6.029,13.3032,4.60092,2470.577,2023-4-02T16:37:06Z
2023-04-02T14:37:20Z,42.805,6.029,13.3033,4.60088,2470.6,2023-4-02T16:40:09Z
2023-04-02T14:40:23Z,42.805,6.029,13.3032,4.60090,2470.6,2023-4-02T16:43:12Z
2023-04-02T14:43:26Z,42.805,6.029,13.3033,4.60094,2470.6,2023-4-02T16:46:15Z
2023-04-02T14:46:29Z,42.805,6.029,13.3031,4.60094,2470.614,2023-4-02T16:49:18Z
2023-04-02T14:49:32Z,42.805,6.029,13.3035,4.60085,2470.614,2023-4-02T16:52:22Z
2023-04-02T14:52:35Z,42.805,6.029,13.3029,4.60091,2470.577,2023-4-02T16:55:25Z
2023-04-02T14:55:38Z,42.805,6.029,13.3024,4.60093,2470.6,2023-4-02T16:58:28Z
2023-04-02T14:58:41Z,42.805,6.029,13.3030,4.60093,2470.591,2023-4-02T17:01:31Z
2023-04-02T15:01:44Z,42.805,6.029,13.3036,4.60087,2470.6,2023-4-02T17:04:34Z
2023-04-02T15:04:47Z,42.805,6.029,13.3030,4.60090,2470.6,2023-4-02T17:07:37Z
2023-04-02T15:07:50Z,42.805,6.029,13.3030,4.60092,2470.567,2023-4-02T17:10:40Z
2023-04-02T15:10:53Z,42.805,6.029,13.3028,4.60089,2470.6,2023-4-02T17:13:43Z
2023-04-02T15:13:56Z,42.805,6.029,13.3025,4.60092,2470.624,2023-4-02T17:16:46Z